Time,TemperatureF,DewpointF,PressureIn,WindDirection,WindDirectionDegrees,WindSpeedMPH,WindSpeedGustMPH,Humidity,HourlyPrecipIn,Conditions,Clouds,dailyrainin,SoftwareType,DateUTC
2013-02-27 00:02:00,32.8,30.7,30.22,North,4,0.0,0.0,92,0.00,,,0.00,WUHU216DAVISWMX,2013-02-27 05:02:00,
2013-02-27 00:07:00,32.8,30.7,30.22,North,4,0.0,0.0,92,0.00,,,0.00,WUHU216DAVISWMX,2013-02-27 05:07:00,
2013-02-27 00:12:00,33.0,30.9,30.22,NNE,32,0.0,1.0,92,0.00,,,0.00,WUHU216DAVISWMX,2013-02-27 05:12:00,
2013-02-27 00:18:00,33.2,30.8,30.22,ENE,71,0.0,1.0,91,0.00,,,0.00,WUHU216DAVISWMX,2013-02-27 05:18:00,
2013-02-27 00:23:00,33.1,30.7,30.22,ENE,70,0.0,0.0,91,0.00,,,0.00,WUHU216DAVISWMX,2013-02-27 05:23:00,
2013-02-27 00:28:00,33.3,30.9,30.22,ENE,70,0.0,0.0,91,0.00,,,0.00,WUHU216DAVISWMX,2013-02-27 05:28:00,
2013-02-27 00:33:00,33.3,30.9,30.21,ENE,69,0.0,1.0,91,0.00,,,0.00,WUHU216DAVISWMX,2013-02-27 05:33:00,
2013-02-27 00:38:00,33.5,30.8,30.21,East,89,0.0,1.0,90,0.00,,,0.00,WUHU216DAVISWMX,2013-02-27 05:38:00,
2013-02-27 00:43:00,33.6,30.9,30.21,East,89,0.0,1.0,90,0.00,,,0.00,WUHU216DAVISWMX,2013-02-27 05:43:00,
2013-02-27 00:48:00,33.6,30.9,30.21,East,90,0.0,0.0,90,0.00,,,0.00,WUHU216DAVISWMX,2013-02-27 05:48:00,
2013-02-27 00:53:00,33.7,31.0,30.20,East,90,0.0,0.0,90,0.00,,,0.00,WUHU216DAVISWMX,2013-02-27 05:53:00,
2013-02-27 00:58:00,33.7,31.0,30.20,ENE,75,0.0,2.0,90,0.00,,,0.00,WUHU216DAVISWMX,2013-02-27 05:58:00,
2013-02-27 01:03:00,33.8,31.1,30.20,ENE,75,1.0,2.0,90,0.00,,,0.00,WUHU216DAVISWMX,2013-02-27 06:03:00,
2013-02-27 01:08:00,33.8,30.9,30.19,ENE,75,0.0,1.0,89,0.00,,,0.00,WUHU216DAVISWMX,2013-02-27 06:08:00,
2013-02-27 01:13:00,33.9,31.0,30.19,ENE,75,0.0,0.0,89,0.00,,,0.00,WUHU216DAVISWMX,2013-02-27 06:13:00,
2013-02-27 01:18:00,33.9,31.0,30.18,ENE,71,0.0,1.0,89,0.00,,,0.00,WUHU216DAVISWMX,2013-02-27 06:18:00,
2013-02-27 01:23:00,34.0,31.1,30.18,ENE,71,0.0,1.0,89,0.00,,,0.00,WUHU216DAVISWMX,2013-02-27 06:23:00,
2013-02-27 01:28:00,34.0,31.1,30.18,ENE,75,0.0,0.0,89,0.00,,,0.00,WUHU216DAVISWMX,2013-02-27 06:28:00,
2013-02-27 01:33:00,34.0,31.1,30.17,East,86,0.0,0.0,89,0.00,,,0.00,WUHU216DAVISWMX,2013-02-27 06:33:00,
2013-02-27 01:38:00,34.0,31.3,30.17,East,86,0.0,0.0,90,0.00,,,0.00,WUHU216DAVISWMX,2013-02-27 06:38:00,
2013-02-27 01:43:00,34.0,31.3,30.17,East,81,0.0,0.0,90,0.00,,,0.00,WUHU216DAVISWMX,2013-02-27 06:43:00,
2013-02-27 01:48:00,34.0,31.3,30.17,East,81,0.0,0.0,90,0.00,,,0.00,WUHU216DAVISWMX,2013-02-27 06:48:00,
2013-02-27 01:53:00,33.9,31.2,30.17,ENE,58,0.0,1.0,90,0.00,,,0.00,WUHU216DAVISWMX,2013-02-27 06:53:00,
2013-02-27 01:58:00,34.0,31.3,30.17,ENE,58,0.0,1.0,90,0.00,,,0.00,WUHU216DAVISWMX,2013-02-27 06:58:00,
2013-02-27 02:03:00,33.9,31.2,30.17,ENE,57,0.0,1.0,90,0.00,,,0.00,WUHU216DAVISWMX,2013-02-27 07:03:00,
2013-02-27 02:08:00,34.0,31.3,30.16,ENE,57,0.0,1.0,90,0.00,,,0.00,WUHU216DAVISWMX,2013-02-27 07:08:00,
2013-02-27 02:13:00,34.0,31.3,30.16,ENE,57,0.0,0.0,90,0.00,,,0.00,WUHU216DAVISWMX,2013-02-27 07:13:00,
2013-02-27 02:18:00,33.9,31.2,30.16,ENE,57,0.0,0.0,90,0.00,,,0.00,WUHU216DAVISWMX,2013-02-27 07:18:00,
2013-02-27 02:23:00,33.9,31.2,30.16,ENE,57,0.0,0.0,90,0.00,,,0.00,WUHU216DAVISWMX,2013-02-27 07:23:00,
2013-02-27 02:28:00,34.0,31.6,30.16,ENE,57,0.0,0.0,91,0.00,,,0.00,WUHU216DAVISWMX,2013-02-27 07:28:00,
2013-02-27 02:33:00,33.9,31.5,30.16,ENE,57,0.0,0.0,91,0.00,,,0.00,WUHU216DAVISWMX,2013-02-27 07:33:00,
2013-02-27 02:38:00,33.8,31.4,30.16,ENE,57,0.0,0.0,91,0.00,,,0.00,WUHU216DAVISWMX,2013-02-27 07:38:00,
2013-02-27 02:43:00,33.9,31.5,30.16,ENE,57,0.0,0.0,91,0.00,,,0.00,WUHU216DAVISWMX,2013-02-27 07:43:00,
2013-02-27 02:48:00,33.8,31.7,30.16,ENE,57,0.0,0.0,92,0.00,,,0.00,WUHU216DAVISWMX,2013-02-27 07:48:00,
2013-02-27 02:53:00,33.8,31.7,30.16,ENE,57,0.0,0.0,92,0.00,,,0.00,WUHU216DAVISWMX,2013-02-27 07:53:00,
2013-02-27 02:58:00,33.8,31.7,30.16,ENE,57,0.0,0.0,92,0.00,,,0.00,WUHU216DAVISWMX,2013-02-27 07:58:00,
2013-02-27 03:03:00,33.9,32.0,30.16,ENE,57,0.0,0.0,93,0.00,,,0.00,WUHU216DAVISWMX,2013-02-27 08:03:00,
2013-02-27 03:08:00,33.8,31.9,30.16,ENE,57,0.0,0.0,93,0.00,,,0.00,WUHU216DAVISWMX,2013-02-27 08:08:00,
2013-02-27 03:13:00,33.7,31.8,30.16,ENE,57,0.0,0.0,93,0.00,,,0.00,WUHU216DAVISWMX,2013-02-27 08:13:00,
2013-02-27 03:18:00,33.8,32.2,30.16,ENE,57,0.0,0.0,94,0.00,,,0.00,WUHU216DAVISWMX,2013-02-27 08:18:00,
2013-02-27 03:23:00,33.7,32.1,30.16,ENE,57,0.0,0.0,94,0.00,,,0.00,WUHU216DAVISWMX,2013-02-27 08:23:00,
2013-02-27 03:28:00,33.7,32.1,30.16,ENE,57,0.0,0.0,94,0.00,,,0.00,WUHU216DAVISWMX,2013-02-27 08:28:00,
2013-02-27 03:33:00,33.6,32.3,30.16,ENE,57,0.0,0.0,95,0.00,,,0.00,WUHU216DAVISWMX,2013-02-27 08:33:00,
2013-02-27 03:38:00,33.6,32.3,30.16,ENE,57,0.0,0.0,95,0.00,,,0.00,WUHU216DAVISWMX,2013-02-27 08:38:00,
2013-02-27 03:43:00,33.6,32.3,30.15,ENE,57,0.0,0.0,95,0.00,,,0.00,WUHU216DAVISWMX,2013-02-27 08:43:00,
2013-02-27 03:48:00,33.6,32.5,30.13,NNE,12,2.0,2.0,96,0.00,,,0.00,WUHU216DAVISWMX,2013-02-27 08:48:00,
2013-02-27 03:53:00,33.5,32.7,30.13,North,9,0.0,2.0,97,0.00,,,0.00,WUHU216DAVISWMX,2013-02-27 08:53:00,
2013-02-27 03:58:00,33.4,32.6,30.13,North,9,0.0,1.0,97,0.00,,,0.00,WUHU216DAVISWMX,2013-02-27 08:58:00,
2013-02-27 04:03:00,33.4,32.6,30.14,North,10,0.0,1.0,97,0.00,,,0.00,WUHU216DAVISWMX,2013-02-27 09:03:00,
2013-02-27 04:08:00,33.4,32.9,30.13,NNE,31,0.0,1.0,98,0.00,,,0.00,WUHU216DAVISWMX,2013-02-27 09:08:00,
2013-02-27 04:13:00,33.4,32.9,30.13,NNE,31,0.0,1.0,98,0.00,,,0.00,WUHU216DAVISWMX,2013-02-27 09:13:00,
2013-02-27 04:18:00,33.3,32.8,30.13,NNE,31,0.0,0.0,98,0.00,,,0.00,WUHU216DAVISWMX,2013-02-27 09:18:00,
2013-02-27 04:23:00,33.2,32.7,30.13,NNE,31,0.0,0.0,98,0.00,,,0.00,WUHU216DAVISWMX,2013-02-27 09:23:00,
2013-02-27 04:28:00,33.3,33.0,30.13,NNE,31,0.0,0.0,99,0.00,,,0.00,WUHU216DAVISWMX,2013-02-27 09:28:00,
2013-02-27 04:33:00,33.3,33.0,30.13,NNE,31,0.0,0.0,99,0.00,,,0.00,WUHU216DAVISWMX,2013-02-27 09:33:00,
2013-02-27 04:38:00,33.3,33.0,30.12,NNE,12,0.0,1.0,99,0.00,,,0.00,WUHU216DAVISWMX,2013-02-27 09:38:00,
2013-02-27 04:43:00,33.2,32.9,30.12,NNE,12,0.0,1.0,99,0.00,,,0.00,WUHU216DAVISWMX,2013-02-27 09:43:00,
2013-02-27 04:48:00,33.2,32.9,30.11,NNE,12,0.0,0.0,99,0.00,,,0.00,WUHU216DAVISWMX,2013-02-27 09:48:00,
2013-02-27 04:53:00,33.2,33.2,30.11,NNE,12,0.0,0.0,100,0.00,,,0.00,WUHU216DAVISWMX,2013-02-27 09:53:00,
2013-02-27 04:58:00,33.2,33.2,30.11,North,8,0.0,1.0,100,0.00,,,0.00,WUHU216DAVISWMX,2013-02-27 09:58:00,
2013-02-27 05:03:00,33.2,33.2,30.11,North,8,0.0,1.0,100,0.00,,,0.00,WUHU216DAVISWMX,2013-02-27 10:03:00,
2013-02-27 05:08:00,33.2,33.2,30.11,North,8,0.0,1.0,100,0.00,,,0.00,WUHU216DAVISWMX,2013-02-27 10:08:00,
2013-02-27 05:13:00,33.1,33.1,30.11,ENE,62,0.0,1.0,100,0.00,,,0.00,WUHU216DAVISWMX,2013-02-27 10:13:00,
2013-02-27 05:18:00,33.2,33.2,30.10,ENE,62,0.0,0.0,100,0.00,,,0.00,WUHU216DAVISWMX,2013-02-27 10:18:00,
2013-02-27 05:23:00,33.1,33.1,30.10,ENE,62,0.0,0.0,100,0.00,,,0.00,WUHU216DAVISWMX,2013-02-27 10:23:00,
2013-02-27 05:28:00,33.3,33.3,30.10,ENE,64,0.0,0.0,100,0.00,,,0.00,WUHU216DAVISWMX,2013-02-27 10:28:00,
2013-02-27 05:33:00,33.3,33.3,30.10,ENE,62,0.0,0.0,100,0.00,,,0.00,WUHU216DAVISWMX,2013-02-27 10:33:00,
2013-02-27 05:38:00,33.2,33.2,30.09,ENE,62,0.0,0.0,100,0.00,,,0.00,WUHU216DAVISWMX,2013-02-27 10:38:00,
2013-02-27 05:43:00,33.3,33.3,30.09,ENE,62,0.0,0.0,100,0.00,,,0.00,WUHU216DAVISWMX,2013-02-27 10:43:00,
2013-02-27 05:48:00,33.2,33.2,30.09,ENE,62,0.0,0.0,100,0.00,,,0.00,WUHU216DAVISWMX,2013-02-27 10:48:00,
2013-02-27 05:53:00,33.3,33.3,30.08,ENE,62,0.0,0.0,100,0.00,,,0.00,WUHU216DAVISWMX,2013-02-27 10:53:00,
2013-02-27 05:58:00,33.4,33.4,30.08,ENE,63,0.0,0.0,100,0.00,,,0.00,WUHU216DAVISWMX,2013-02-27 10:58:00,
2013-02-27 06:03:00,33.3,33.3,30.08,ENE,63,0.0,0.0,100,0.00,,,0.00,WUHU216DAVISWMX,2013-02-27 11:03:00,
2013-02-27 06:08:00,33.3,33.3,30.07,NE,43,0.0,1.0,100,0.00,,,0.00,WUHU216DAVISWMX,2013-02-27 11:08:00,
2013-02-27 06:13:00,33.4,33.4,30.07,North,358,0.0,1.0,100,0.00,,,0.00,WUHU216DAVISWMX,2013-02-27 11:13:00,
2013-02-27 06:18:00,33.3,33.3,30.07,NNE,28,0.0,2.0,100,0.00,,,0.00,WUHU216DAVISWMX,2013-02-27 11:18:00,
2013-02-27 06:23:00,33.3,33.3,30.06,NNE,13,0.0,2.0,100,0.00,,,0.00,WUHU216DAVISWMX,2013-02-27 11:23:00,
2013-02-27 06:28:00,33.3,33.3,30.06,NNE,13,0.0,0.0,100,0.00,,,0.00,WUHU216DAVISWMX,2013-02-27 11:28:00,
2013-02-27 06:33:00,33.4,33.4,30.06,NNE,13,0.0,0.0,100,0.00,,,0.00,WUHU216DAVISWMX,2013-02-27 11:33:00,
2013-02-27 06:38:00,33.3,33.3,30.05,East,84,0.0,1.0,100,0.00,,,0.00,WUHU216DAVISWMX,2013-02-27 11:38:00,
2013-02-27 06:43:00,33.4,33.4,30.05,East,83,0.0,1.0,100,0.00,,,0.00,WUHU216DAVISWMX,2013-02-27 11:43:00,
2013-02-27 06:48:00,33.4,33.4,30.04,NNE,20,0.0,1.0,100,0.00,,,0.00,WUHU216DAVISWMX,2013-02-27 11:48:00,
2013-02-27 06:53:00,33.6,33.6,30.04,North,5,0.0,1.0,100,0.00,,,0.00,WUHU216DAVISWMX,2013-02-27 11:53:00,
2013-02-27 06:58:00,33.6,33.6,30.04,NE,37,0.0,1.0,100,0.00,,,0.00,WUHU216DAVISWMX,2013-02-27 11:58:00,
2013-02-27 07:03:00,33.6,33.6,30.04,East,88,0.0,1.0,100,0.00,,,0.00,WUHU216DAVISWMX,2013-02-27 12:03:00,
2013-02-27 07:08:00,33.7,33.7,30.04,ENE,75,0.0,3.0,100,0.00,,,0.00,WUHU216DAVISWMX,2013-02-27 12:08:00,
2013-02-27 07:13:00,33.8,33.8,30.03,NE,35,0.0,3.0,100,0.00,,,0.00,WUHU216DAVISWMX,2013-02-27 12:13:00,
2013-02-27 07:18:00,33.9,33.9,30.02,East,80,0.0,1.0,100,0.00,,,0.00,WUHU216DAVISWMX,2013-02-27 12:18:00,
2013-02-27 07:23:00,33.9,33.9,30.02,East,80,0.0,1.0,100,0.00,,,0.00,WUHU216DAVISWMX,2013-02-27 12:23:00,
2013-02-27 07:28:00,34.0,34.0,30.02,East,80,0.0,0.0,100,0.00,,,0.00,WUHU216DAVISWMX,2013-02-27 12:28:00,
2013-02-27 07:33:00,34.0,34.0,30.02,East,91,0.0,0.0,100,0.00,,,0.00,WUHU216DAVISWMX,2013-02-27 12:33:00,
2013-02-27 07:38:00,34.1,34.1,30.01,East,89,0.0,0.0,100,0.00,,,0.00,WUHU216DAVISWMX,2013-02-27 12:38:00,
2013-02-27 07:43:00,34.2,34.2,30.01,East,89,0.0,1.0,100,0.00,,,0.00,WUHU216DAVISWMX,2013-02-27 12:43:00,
2013-02-27 07:48:00,34.3,34.3,30.00,East,89,0.0,1.0,100,0.00,,,0.00,WUHU216DAVISWMX,2013-02-27 12:48:00,
2013-02-27 07:53:00,34.5,34.5,30.00,East,88,0.0,1.0,100,0.00,,,0.00,WUHU216DAVISWMX,2013-02-27 12:53:00,
2013-02-27 07:58:00,34.8,34.8,30.00,East,80,0.0,4.0,100,0.00,,,0.00,WUHU216DAVISWMX,2013-02-27 12:58:00,
2013-02-27 08:03:00,35.3,35.3,30.00,ENE,73,3.0,4.0,100,0.00,,,0.00,WUHU216DAVISWMX,2013-02-27 13:03:00,
2013-02-27 08:08:00,35.5,35.5,30.00,East,92,1.0,3.0,100,0.00,,,0.00,WUHU216DAVISWMX,2013-02-27 13:08:00,
2013-02-27 08:13:00,35.8,35.8,29.99,NE,51,1.0,2.0,100,0.00,,,0.00,WUHU216DAVISWMX,2013-02-27 13:13:00,
2013-02-27 08:18:00,36.2,36.2,29.98,East,84,3.0,5.0,100,0.00,,,0.00,WUHU216DAVISWMX,2013-02-27 13:18:00,
2013-02-27 08:23:00,36.5,36.5,29.98,NE,54,9.0,9.0,100,0.00,,,0.00,WUHU216DAVISWMX,2013-02-27 13:23:00,
2013-02-27 08:28:00,36.8,36.8,29.98,NE,49,1.0,9.0,100,0.00,,,0.00,WUHU216DAVISWMX,2013-02-27 13:28:00,
2013-02-27 08:33:00,37.0,37.0,29.98,NE,45,0.0,6.0,100,0.00,,,0.00,WUHU216DAVISWMX,2013-02-27 13:33:00,
2013-02-27 08:38:00,37.2,37.2,29.97,NE,49,0.0,5.0,100,0.00,,,0.00,WUHU216DAVISWMX,2013-02-27 13:38:00,
2013-02-27 08:43:00,37.4,37.4,29.97,NE,55,1.0,3.0,100,0.00,,,0.00,WUHU216DAVISWMX,2013-02-27 13:43:00,
2013-02-27 08:48:00,37.4,37.4,29.96,ENE,76,1.0,3.0,100,0.00,,,0.00,WUHU216DAVISWMX,2013-02-27 13:48:00,
2013-02-27 08:54:00,37.6,37.6,29.96,ENE,60,0.0,3.0,100,0.00,,,0.00,WUHU216DAVISWMX,2013-02-27 13:54:00,
2013-02-27 08:59:00,37.6,37.6,29.95,NE,52,5.0,9.0,100,0.00,,,0.00,WUHU216DAVISWMX,2013-02-27 13:59:00,
2013-02-27 09:04:00,37.7,37.7,29.95,NE,40,6.0,9.0,100,0.00,,,0.00,WUHU216DAVISWMX,2013-02-27 14:04:00,
2013-02-27 09:09:00,37.8,37.8,29.94,SE,126,0.0,7.0,100,0.00,,,0.00,WUHU216DAVISWMX,2013-02-27 14:09:00,
2013-02-27 09:14:00,37.7,37.7,29.95,East,79,3.0,7.0,100,0.00,,,0.00,WUHU216DAVISWMX,2013-02-27 14:14:00,
2013-02-27 09:19:00,38.0,38.0,29.95,ENE,62,0.0,4.0,100,0.00,,,0.00,WUHU216DAVISWMX,2013-02-27 14:19:00,
2013-02-27 09:24:00,37.8,37.8,29.95,NE,53,11.0,11.0,100,0.00,,,0.00,WUHU216DAVISWMX,2013-02-27 14:24:00,
2013-02-27 09:29:00,38.0,38.0,29.95,East,79,0.0,12.0,100,0.00,,,0.00,WUHU216DAVISWMX,2013-02-27 14:29:00,
2013-02-27 09:34:00,38.0,38.0,29.95,ESE,119,0.0,12.0,100,0.00,,,0.00,WUHU216DAVISWMX,2013-02-27 14:34:00,
2013-02-27 09:39:00,38.3,38.3,29.94,ENE,64,2.0,7.0,100,0.00,,,0.00,WUHU216DAVISWMX,2013-02-27 14:39:00,
2013-02-27 09:44:00,38.2,38.2,29.94,ENE,71,0.0,7.0,100,0.00,,,0.00,WUHU216DAVISWMX,2013-02-27 14:44:00,
2013-02-27 09:49:00,38.4,38.4,29.94,ESE,117,0.0,9.0,100,0.00,,,0.00,WUHU216DAVISWMX,2013-02-27 14:49:00,
2013-02-27 09:54:00,38.5,38.5,29.93,NE,43,7.0,9.0,100,0.00,,,0.00,WUHU216DAVISWMX,2013-02-27 14:54:00,
2013-02-27 09:59:00,38.7,38.7,29.93,ENE,74,3.0,8.0,100,0.00,,,0.00,WUHU216DAVISWMX,2013-02-27 14:59:00,
2013-02-27 10:04:00,38.7,38.7,29.92,ENE,73,2.0,8.0,100,0.00,,,0.00,WUHU216DAVISWMX,2013-02-27 15:04:00,
2013-02-27 10:09:00,38.8,38.8,29.92,ENE,69,2.0,7.0,100,0.00,,,0.00,WUHU216DAVISWMX,2013-02-27 15:09:00,
2013-02-27 10:14:00,38.8,38.8,29.92,ENE,75,0.0,7.0,100,0.00,,,0.00,WUHU216DAVISWMX,2013-02-27 15:14:00,
2013-02-27 10:19:00,39.0,39.0,29.92,NE,49,7.0,7.0,100,0.00,,,0.00,WUHU216DAVISWMX,2013-02-27 15:19:00,
2013-02-27 10:24:00,39.1,39.1,29.91,NE,55,4.0,10.0,100,0.00,,,0.00,WUHU216DAVISWMX,2013-02-27 15:24:00,
2013-02-27 10:29:00,39.1,39.1,29.91,ENE,61,4.0,10.0,100,0.00,,,0.00,WUHU216DAVISWMX,2013-02-27 15:29:00,
2013-02-27 10:34:00,39.1,39.1,29.92,ENE,63,1.0,6.0,100,0.00,,,0.00,WUHU216DAVISWMX,2013-02-27 15:34:00,
2013-02-27 10:39:00,39.1,39.1,29.92,ENE,58,2.0,6.0,100,0.00,,,0.00,WUHU216DAVISWMX,2013-02-27 15:39:00,
2013-02-27 10:44:00,39.1,39.1,29.91,ENE,59,3.0,11.0,100,0.00,,,0.00,WUHU216DAVISWMX,2013-02-27 15:44:00,
2013-02-27 10:49:00,39.2,39.2,29.91,ENE,61,2.0,11.0,100,0.00,,,0.00,WUHU216DAVISWMX,2013-02-27 15:49:00,
2013-02-27 10:54:00,39.2,39.2,29.91,NE,41,3.0,4.0,100,0.00,,,0.00,WUHU216DAVISWMX,2013-02-27 15:54:00,
2013-02-27 10:59:00,39.2,39.2,29.91,SSE,164,0.0,4.0,100,0.00,,,0.00,WUHU216DAVISWMX,2013-02-27 15:59:00,
2013-02-27 11:04:00,39.3,39.3,29.91,ENE,68,1.0,5.0,100,0.00,,,0.00,WUHU216DAVISWMX,2013-02-27 16:04:00,
2013-02-27 11:09:00,39.1,39.1,29.91,SE,131,1.0,5.0,100,0.00,,,0.00,WUHU216DAVISWMX,2013-02-27 16:09:00,
2013-02-27 11:14:00,39.3,39.3,29.90,ENE,75,4.0,6.0,100,0.00,,,0.00,WUHU216DAVISWMX,2013-02-27 16:14:00,
2013-02-27 11:19:00,39.4,39.4,29.90,NE,34,4.0,8.0,100,0.00,,,0.00,WUHU216DAVISWMX,2013-02-27 16:19:00,
2013-02-27 11:24:00,39.2,39.2,29.89,ENE,67,1.0,10.0,100,0.00,,,0.00,WUHU216DAVISWMX,2013-02-27 16:24:00,
2013-02-27 11:29:00,39.3,39.3,29.89,East,80,1.0,10.0,100,0.00,,,0.00,WUHU216DAVISWMX,2013-02-27 16:29:00,
2013-02-27 11:34:00,39.3,39.3,29.88,East,85,0.0,7.0,100,0.00,,,0.00,WUHU216DAVISWMX,2013-02-27 16:34:00,
2013-02-27 11:39:00,39.2,39.2,29.87,East,81,2.0,7.0,100,0.00,,,0.00,WUHU216DAVISWMX,2013-02-27 16:39:00,
2013-02-27 11:44:00,39.5,39.5,29.87,ESE,105,0.0,6.0,100,0.00,,,0.00,WUHU216DAVISWMX,2013-02-27 16:44:00,
2013-02-27 11:49:00,39.5,39.5,29.87,ENE,77,2.0,6.0,100,0.00,,,0.00,WUHU216DAVISWMX,2013-02-27 16:49:00,
2013-02-27 11:54:00,39.5,39.5,29.87,ENE,70,3.0,4.0,100,0.00,,,0.00,WUHU216DAVISWMX,2013-02-27 16:54:00,
2013-02-27 11:59:00,39.5,39.5,29.86,NE,52,0.0,4.0,100,0.00,,,0.00,WUHU216DAVISWMX,2013-02-27 16:59:00,
2013-02-27 12:04:00,39.5,39.5,29.86,NE,38,2.0,4.0,100,0.00,,,0.00,WUHU216DAVISWMX,2013-02-27 17:04:00,
2013-02-27 12:09:00,39.5,39.5,29.85,ENE,60,2.0,7.0,100,0.00,,,0.00,WUHU216DAVISWMX,2013-02-27 17:09:00,
2013-02-27 12:14:00,39.4,39.4,29.85,SSE,153,3.0,7.0,100,0.00,,,0.00,WUHU216DAVISWMX,2013-02-27 17:14:00,
2013-02-27 12:19:00,39.6,39.6,29.85,ENE,75,0.0,7.0,100,0.00,,,0.00,WUHU216DAVISWMX,2013-02-27 17:19:00,
2013-02-27 12:24:00,39.6,39.6,29.85,SE,145,1.0,7.0,100,0.00,,,0.00,WUHU216DAVISWMX,2013-02-27 17:24:00,
2013-02-27 12:29:00,39.6,39.6,29.85,ENE,57,0.0,7.0,100,0.00,,,0.00,WUHU216DAVISWMX,2013-02-27 17:29:00,
2013-02-27 12:34:00,39.5,39.5,29.85,ENE,73,1.0,4.0,100,0.00,,,0.00,WUHU216DAVISWMX,2013-02-27 17:34:00,
2013-02-27 12:39:00,39.5,39.5,29.84,East,90,1.0,4.0,100,0.00,,,0.00,WUHU216DAVISWMX,2013-02-27 17:39:00,
2013-02-27 12:44:00,39.4,39.4,29.84,ENE,68,2.0,2.0,100,0.00,,,0.00,WUHU216DAVISWMX,2013-02-27 17:44:00,
2013-02-27 12:49:00,39.3,39.3,29.84,East,97,1.0,4.0,100,0.00,,,0.00,WUHU216DAVISWMX,2013-02-27 17:49:00,
2013-02-27 12:54:00,39.3,39.3,29.84,ENE,57,1.0,4.0,100,0.00,,,0.00,WUHU216DAVISWMX,2013-02-27 17:54:00,
2013-02-27 12:59:00,39.3,39.3,29.84,ESE,114,1.0,3.0,100,0.00,,,0.00,WUHU216DAVISWMX,2013-02-27 17:59:00,
2013-02-27 13:04:00,39.3,39.3,29.83,NE,56,0.0,3.0,100,0.00,,,0.00,WUHU216DAVISWMX,2013-02-27 18:04:00,
2013-02-27 13:09:00,39.3,39.3,29.83,ENE,73,2.0,3.0,100,0.00,,,0.00,WUHU216DAVISWMX,2013-02-27 18:09:00,
2013-02-27 13:14:00,39.3,39.3,29.83,NE,55,1.0,5.0,100,0.00,,,0.00,WUHU216DAVISWMX,2013-02-27 18:14:00,
2013-02-27 13:19:00,39.3,39.3,29.83,ESE,105,1.0,5.0,100,0.00,,,0.00,WUHU216DAVISWMX,2013-02-27 18:19:00,
2013-02-27 13:24:00,39.2,39.2,29.83,East,95,4.0,4.0,100,0.00,,,0.00,WUHU216DAVISWMX,2013-02-27 18:24:00,
2013-02-27 13:29:00,39.3,39.3,29.83,NE,53,2.0,8.0,100,0.00,,,0.00,WUHU216DAVISWMX,2013-02-27 18:29:00,
2013-02-27 13:34:00,39.1,39.1,29.83,NE,42,0.0,8.0,100,0.00,,,0.00,WUHU216DAVISWMX,2013-02-27 18:34:00,
2013-02-27 13:39:00,39.1,39.1,29.83,SSW,195,0.0,7.0,100,0.00,,,0.00,WUHU216DAVISWMX,2013-02-27 18:39:00,
2013-02-27 13:44:00,39.0,39.0,29.84,ESE,122,0.0,5.0,100,0.00,,,0.00,WUHU216DAVISWMX,2013-02-27 18:44:00,
2013-02-27 13:49:00,38.9,38.9,29.84,NE,35,0.0,2.0,100,0.00,,,0.00,WUHU216DAVISWMX,2013-02-27 18:49:00,
2013-02-27 13:54:00,38.9,38.9,29.83,NE,35,5.0,5.0,100,0.00,,,0.00,WUHU216DAVISWMX,2013-02-27 18:54:00,
2013-02-27 13:59:00,38.8,38.8,29.83,ENE,73,1.0,5.0,100,0.00,,,0.00,WUHU216DAVISWMX,2013-02-27 18:59:00,
2013-02-27 14:04:00,38.7,38.7,29.83,South,180,0.0,4.0,100,0.00,,,0.00,WUHU216DAVISWMX,2013-02-27 19:04:00,
2013-02-27 14:09:00,38.6,38.6,29.83,East,81,0.0,12.0,100,0.00,,,0.00,WUHU216DAVISWMX,2013-02-27 19:09:00,
2013-02-27 14:14:00,38.5,38.5,29.83,ENE,67,1.0,12.0,100,0.00,,,0.00,WUHU216DAVISWMX,2013-02-27 19:14:00,
2013-02-27 14:19:00,38.4,38.4,29.82,ESE,114,0.0,8.0,100,0.00,,,0.00,WUHU216DAVISWMX,2013-02-27 19:19:00,
2013-02-27 14:24:00,38.2,38.2,29.82,NE,39,3.0,8.0,100,0.00,,,0.00,WUHU216DAVISWMX,2013-02-27 19:24:00,
2013-02-27 14:29:00,38.1,38.1,29.82,South,182,0.0,3.0,100,0.00,,,0.00,WUHU216DAVISWMX,2013-02-27 19:29:00,
2013-02-27 14:34:00,38.0,38.0,29.82,ENE,69,0.0,4.0,100,0.00,,,0.00,WUHU216DAVISWMX,2013-02-27 19:34:00,
2013-02-27 14:39:00,38.0,38.0,29.82,ENE,72,1.0,4.0,100,0.00,,,0.00,WUHU216DAVISWMX,2013-02-27 19:39:00,
2013-02-27 14:44:00,37.9,37.9,29.82,East,100,0.0,3.0,100,0.00,,,0.00,WUHU216DAVISWMX,2013-02-27 19:44:00,
2013-02-27 14:49:00,37.6,37.6,29.83,ENE,58,0.0,3.0,100,0.00,,,0.00,WUHU216DAVISWMX,2013-02-27 19:49:00,
2013-02-27 14:54:00,37.6,37.6,29.83,ENE,68,0.0,3.0,100,0.00,,,0.00,WUHU216DAVISWMX,2013-02-27 19:54:00,
2013-02-27 14:59:00,37.4,37.4,29.83,ENE,67,0.0,3.0,100,0.00,,,0.00,WUHU216DAVISWMX,2013-02-27 19:59:00,
2013-02-27 15:04:00,37.1,37.1,29.83,ENE,67,1.0,3.0,100,0.00,,,0.00,WUHU216DAVISWMX,2013-02-27 20:04:00,
2013-02-27 15:09:00,36.9,36.9,29.82,NNE,12,0.0,3.0,100,0.00,,,0.00,WUHU216DAVISWMX,2013-02-27 20:09:00,
2013-02-27 15:14:00,36.6,36.6,29.81,NE,34,0.0,1.0,100,0.00,,,0.00,WUHU216DAVISWMX,2013-02-27 20:14:00,
2013-02-27 15:19:00,36.5,36.5,29.81,ENE,65,0.0,1.0,100,0.00,,,0.00,WUHU216DAVISWMX,2013-02-27 20:19:00,
2013-02-27 15:24:00,36.0,36.0,29.80,ENE,69,0.0,7.0,100,0.00,,,0.00,WUHU216DAVISWMX,2013-02-27 20:24:00,
2013-02-27 15:29:00,35.8,35.8,29.80,ENE,60,1.0,7.0,100,0.00,,,0.00,WUHU216DAVISWMX,2013-02-27 20:29:00,
2013-02-27 15:34:00,35.6,35.6,29.81,NNE,28,0.0,3.0,100,0.00,,,0.00,WUHU216DAVISWMX,2013-02-27 20:34:00,
2013-02-27 15:39:00,35.5,35.5,29.80,NNE,28,0.0,1.0,100,0.00,,,0.00,WUHU216DAVISWMX,2013-02-27 20:39:00,
2013-02-27 15:44:00,35.5,35.5,29.80,NNE,33,0.0,1.0,100,0.00,,,0.00,WUHU216DAVISWMX,2013-02-27 20:44:00,
2013-02-27 15:49:00,35.2,35.2,29.79,North,8,0.0,1.0,100,0.00,,,0.00,WUHU216DAVISWMX,2013-02-27 20:49:00,
2013-02-27 15:54:00,35.2,35.2,29.80,East,86,1.0,2.0,100,0.00,,,0.00,WUHU216DAVISWMX,2013-02-27 20:54:00,
2013-02-27 15:59:00,35.2,35.2,29.79,ENE,70,0.0,2.0,100,0.00,,,0.00,WUHU216DAVISWMX,2013-02-27 20:59:00,
2013-02-27 16:05:00,35.0,35.0,29.80,ENE,69,0.0,2.0,100,0.00,,,0.00,WUHU216DAVISWMX,2013-02-27 21:05:00,
2013-02-27 16:10:00,35.0,35.0,29.79,ENE,66,0.0,2.0,100,0.00,,,0.00,WUHU216DAVISWMX,2013-02-27 21:10:00,
2013-02-27 16:15:00,35.0,35.0,29.79,ENE,68,0.0,4.0,100,0.00,,,0.00,WUHU216DAVISWMX,2013-02-27 21:15:00,
2013-02-27 16:20:00,35.0,35.0,29.78,East,90,0.0,4.0,100,0.00,,,0.00,WUHU216DAVISWMX,2013-02-27 21:20:00,
2013-02-27 16:25:00,34.9,34.9,29.78,East,89,0.0,2.0,100,0.00,,,0.00,WUHU216DAVISWMX,2013-02-27 21:25:00,
2013-02-27 16:30:00,34.9,34.9,29.78,East,79,0.0,1.0,100,0.00,,,0.00,WUHU216DAVISWMX,2013-02-27 21:30:00,
2013-02-27 16:35:00,34.9,34.9,29.78,ENE,58,0.0,2.0,100,0.00,,,0.00,WUHU216DAVISWMX,2013-02-27 21:35:00,
2013-02-27 16:40:00,35.0,35.0,29.77,East,98,0.0,2.0,100,0.00,,,0.00,WUHU216DAVISWMX,2013-02-27 21:40:00,
2013-02-27 16:45:00,34.9,34.9,29.77,NNE,15,0.0,2.0,100,0.00,,,0.00,WUHU216DAVISWMX,2013-02-27 21:45:00,
2013-02-27 16:50:00,34.9,34.9,29.77,ENE,68,0.0,2.0,100,0.00,,,0.00,WUHU216DAVISWMX,2013-02-27 21:50:00,
2013-02-27 16:55:00,34.8,34.8,29.78,ENE,57,0.0,2.0,100,0.00,,,0.00,WUHU216DAVISWMX,2013-02-27 21:55:00,
2013-02-27 17:00:00,34.5,34.5,29.78,NNE,32,0.0,2.0,100,0.00,,,0.00,WUHU216DAVISWMX,2013-02-27 22:00:00,
2013-02-27 17:05:00,34.4,34.4,29.77,NNE,32,0.0,1.0,100,0.00,,,0.00,WUHU216DAVISWMX,2013-02-27 22:05:00,
2013-02-27 17:10:00,34.2,34.2,29.77,North,6,2.0,2.0,100,0.00,,,0.00,WUHU216DAVISWMX,2013-02-27 22:10:00,
2013-02-27 17:15:00,34.2,34.2,29.77,North,11,0.0,2.0,100,0.00,,,0.00,WUHU216DAVISWMX,2013-02-27 22:15:00,
2013-02-27 17:20:00,34.1,34.1,29.77,North,11,0.0,1.0,100,0.00,,,0.00,WUHU216DAVISWMX,2013-02-27 22:20:00,
2013-02-27 17:25:00,34.0,34.0,29.77,North,11,0.0,1.0,100,0.00,,,0.00,WUHU216DAVISWMX,2013-02-27 22:25:00,
2013-02-27 17:30:00,33.9,33.9,29.77,NNE,25,0.0,1.0,100,0.00,,,0.00,WUHU216DAVISWMX,2013-02-27 22:30:00,
2013-02-27 17:35:00,33.8,33.8,29.77,NNE,16,0.0,1.0,100,0.00,,,0.00,WUHU216DAVISWMX,2013-02-27 22:35:00,
2013-02-27 17:40:00,33.7,33.7,29.77,NNE,16,0.0,1.0,100,0.00,,,0.00,WUHU216DAVISWMX,2013-02-27 22:40:00,
2013-02-27 17:45:00,33.7,33.7,29.77,NNE,12,0.0,1.0,100,0.00,,,0.00,WUHU216DAVISWMX,2013-02-27 22:45:00,
2013-02-27 17:50:00,33.7,33.7,29.77,NNE,12,0.0,1.0,100,0.00,,,0.00,WUHU216DAVISWMX,2013-02-27 22:50:00,
2013-02-27 17:55:00,33.8,33.8,29.77,NNE,24,0.0,1.0,100,0.00,,,0.00,WUHU216DAVISWMX,2013-02-27 22:55:00,
2013-02-27 18:00:00,33.8,33.8,29.77,ENE,70,3.0,3.0,100,0.00,,,0.00,WUHU216DAVISWMX,2013-02-27 23:00:00,
2013-02-27 18:05:00,33.7,33.7,29.77,North,7,0.0,3.0,100,0.00,,,0.00,WUHU216DAVISWMX,2013-02-27 23:05:00,
2013-02-27 18:10:00,33.7,33.7,29.77,ENE,67,0.0,1.0,100,0.00,,,0.00,WUHU216DAVISWMX,2013-02-27 23:10:00,
2013-02-27 18:15:00,33.5,33.5,29.77,North,8,1.0,2.0,100,0.00,,,0.00,WUHU216DAVISWMX,2013-02-27 23:15:00,
2013-02-27 18:20:00,33.6,33.6,29.77,North,8,0.0,2.0,100,0.00,,,0.00,WUHU216DAVISWMX,2013-02-27 23:20:00,
2013-02-27 18:25:00,33.5,33.5,29.76,NNE,30,0.0,1.0,100,0.00,,,0.00,WUHU216DAVISWMX,2013-02-27 23:25:00,
2013-02-27 18:30:00,33.4,33.4,29.77,NE,40,0.0,1.0,100,0.00,,,0.00,WUHU216DAVISWMX,2013-02-27 23:30:00,
2013-02-27 18:35:00,33.5,33.5,29.77,North,1,0.0,1.0,100,0.00,,,0.00,WUHU216DAVISWMX,2013-02-27 23:35:00,
2013-02-27 18:40:00,33.4,33.4,29.76,NNE,23,1.0,1.0,100,0.00,,,0.00,WUHU216DAVISWMX,2013-02-27 23:40:00,
2013-02-27 18:45:00,33.3,33.3,29.75,NNE,19,1.0,4.0,100,0.00,,,0.00,WUHU216DAVISWMX,2013-02-27 23:45:00,
2013-02-27 18:50:00,33.2,33.2,29.75,NNE,31,1.0,4.0,100,0.00,,,0.00,WUHU216DAVISWMX,2013-02-27 23:50:00,
2013-02-27 18:55:00,33.2,33.2,29.75,NNE,12,0.0,2.0,100,0.00,,,0.00,WUHU216DAVISWMX,2013-02-27 23:55:00,
2013-02-27 19:00:00,33.3,33.3,29.74,NNE,23,1.0,2.0,100,0.00,,,0.00,WUHU216DAVISWMX,2013-02-28 00:00:00,
2013-02-27 19:05:00,33.3,33.3,29.74,ENE,69,0.0,2.0,100,0.00,,,0.00,WUHU216DAVISWMX,2013-02-28 00:05:00,
2013-02-27 19:10:00,33.2,33.2,29.73,SE,127,0.0,2.0,100,0.00,,,0.00,WUHU216DAVISWMX,2013-02-28 00:10:00,
2013-02-27 19:15:00,33.2,33.2,29.72,NE,36,0.0,2.0,100,0.00,,,0.00,WUHU216DAVISWMX,2013-02-28 00:15:00,
2013-02-27 19:20:00,33.3,33.3,29.72,NNW,342,0.0,4.0,100,0.00,,,0.00,WUHU216DAVISWMX,2013-02-28 00:20:00,
2013-02-27 19:25:00,33.4,33.4,29.72,East,87,0.0,4.0,100,0.00,,,0.00,WUHU216DAVISWMX,2013-02-28 00:25:00,
2013-02-27 19:30:00,33.4,33.4,29.71,NNE,14,2.0,3.0,100,0.00,,,0.00,WUHU216DAVISWMX,2013-02-28 00:30:00,
2013-02-27 19:35:00,33.4,33.4,29.72,North,9,0.0,3.0,100,0.00,,,0.00,WUHU216DAVISWMX,2013-02-28 00:35:00,
2013-02-27 19:40:00,33.3,33.3,29.72,NNE,17,1.0,2.0,100,0.00,,,0.00,WUHU216DAVISWMX,2013-02-28 00:40:00,
2013-02-27 19:45:00,33.4,33.4,29.72,NNE,15,0.0,1.0,100,0.00,,,0.00,WUHU216DAVISWMX,2013-02-28 00:45:00,
2013-02-27 19:50:00,33.4,33.4,29.72,North,10,0.0,1.0,100,0.00,,,0.00,WUHU216DAVISWMX,2013-02-28 00:50:00,
2013-02-27 19:55:00,33.4,33.4,29.72,North,6,0.0,4.0,100,0.00,,,0.00,WUHU216DAVISWMX,2013-02-28 00:55:00,
2013-02-27 20:00:00,33.4,33.4,29.72,NNE,29,0.0,4.0,100,0.00,,,0.00,WUHU216DAVISWMX,2013-02-28 01:00:00,
2013-02-27 20:05:00,33.4,33.4,29.72,North,9,0.0,4.0,100,0.00,,,0.00,WUHU216DAVISWMX,2013-02-28 01:05:00,
2013-02-27 20:10:00,33.5,33.5,29.72,NNE,15,0.0,4.0,100,0.00,,,0.00,WUHU216DAVISWMX,2013-02-28 01:10:00,
2013-02-27 20:15:00,33.6,33.6,29.72,NNE,15,0.0,2.0,100,0.00,,,0.00,WUHU216DAVISWMX,2013-02-28 01:15:00,
2013-02-27 20:20:00,33.6,33.6,29.72,North,1,0.0,2.0,100,0.00,,,0.00,WUHU216DAVISWMX,2013-02-28 01:20:00,
2013-02-27 20:25:00,33.6,33.6,29.71,NNE,17,0.0,2.0,100,0.00,,,0.00,WUHU216DAVISWMX,2013-02-28 01:25:00,
2013-02-27 20:30:00,33.5,33.5,29.71,NNE,13,0.0,2.0,100,0.00,,,0.00,WUHU216DAVISWMX,2013-02-28 01:30:00,
2013-02-27 20:35:00,33.5,33.5,29.71,NE,39,1.0,2.0,100,0.00,,,0.00,WUHU216DAVISWMX,2013-02-28 01:35:00,
2013-02-27 20:40:00,33.6,33.6,29.71,North,351,0.0,2.0,100,0.00,,,0.00,WUHU216DAVISWMX,2013-02-28 01:40:00,
2013-02-27 20:45:00,33.6,33.6,29.71,North,0,0.0,2.0,100,0.00,,,0.00,WUHU216DAVISWMX,2013-02-28 01:45:00,
2013-02-27 20:50:00,33.5,33.5,29.71,North,0,0.0,1.0,100,0.00,,,0.00,WUHU216DAVISWMX,2013-02-28 01:50:00,
2013-02-27 20:55:00,33.6,33.6,29.70,North,0,0.0,1.0,100,0.00,,,0.00,WUHU216DAVISWMX,2013-02-28 01:55:00,
2013-02-27 21:00:00,33.6,33.6,29.70,NNW,329,0.0,1.0,100,0.00,,,0.00,WUHU216DAVISWMX,2013-02-28 02:00:00,
2013-02-27 21:05:00,33.6,33.6,29.70,NNE,15,0.0,2.0,100,0.00,,,0.00,WUHU216DAVISWMX,2013-02-28 02:05:00,
2013-02-27 21:10:00,33.7,33.7,29.69,NNE,15,0.0,2.0,100,0.00,,,0.00,WUHU216DAVISWMX,2013-02-28 02:10:00,
2013-02-27 21:15:00,33.6,33.6,29.69,NNE,15,0.0,1.0,100,0.00,,,0.00,WUHU216DAVISWMX,2013-02-28 02:15:00,
2013-02-27 21:20:00,33.6,33.6,29.69,NNE,25,0.0,1.0,100,0.00,,,0.00,WUHU216DAVISWMX,2013-02-28 02:20:00,
2013-02-27 21:25:00,33.6,33.6,29.69,NNE,25,1.0,1.0,100,0.00,,,0.00,WUHU216DAVISWMX,2013-02-28 02:25:00,
2013-02-27 21:30:00,33.6,33.6,29.69,NNE,25,0.0,1.0,100,0.00,,,0.00,WUHU216DAVISWMX,2013-02-28 02:30:00,
2013-02-27 21:35:00,33.6,33.6,29.68,NNE,25,0.0,1.0,100,0.00,,,0.00,WUHU216DAVISWMX,2013-02-28 02:35:00,
2013-02-27 21:40:00,33.6,33.6,29.68,North,357,0.0,1.0,100,0.00,,,0.00,WUHU216DAVISWMX,2013-02-28 02:40:00,
2013-02-27 21:45:00,33.5,33.5,29.68,North,0,1.0,2.0,100,0.00,,,0.00,WUHU216DAVISWMX,2013-02-28 02:45:00,
2013-02-27 21:50:00,33.7,33.7,29.67,North,0,0.0,2.0,100,0.00,,,0.00,WUHU216DAVISWMX,2013-02-28 02:50:00,
2013-02-27 21:55:00,33.6,33.6,29.67,NNW,340,1.0,2.0,100,0.00,,,0.00,WUHU216DAVISWMX,2013-02-28 02:55:00,
2013-02-27 22:00:00,33.5,33.5,29.67,NNW,341,0.0,2.0,100,0.00,,,0.00,WUHU216DAVISWMX,2013-02-28 03:00:00,
2013-02-27 22:05:00,33.6,33.6,29.67,NNW,333,0.0,3.0,100,0.00,,,0.00,WUHU216DAVISWMX,2013-02-28 03:05:00,
2013-02-27 22:10:00,33.5,33.5,29.67,NNW,333,2.0,3.0,100,0.00,,,0.00,WUHU216DAVISWMX,2013-02-28 03:10:00,
2013-02-27 22:15:00,33.6,33.6,29.67,NNW,338,0.0,3.0,100,0.00,,,0.00,WUHU216DAVISWMX,2013-02-28 03:15:00,
2013-02-27 22:20:00,33.5,33.5,29.67,NNW,339,1.0,3.0,100,0.00,,,0.00,WUHU216DAVISWMX,2013-02-28 03:20:00,
2013-02-27 22:25:00,33.6,33.6,29.67,NNW,334,0.0,2.0,100,0.00,,,0.00,WUHU216DAVISWMX,2013-02-28 03:25:00,
2013-02-27 22:30:00,33.5,33.5,29.67,NNW,334,0.0,2.0,100,0.00,,,0.00,WUHU216DAVISWMX,2013-02-28 03:30:00,
2013-02-27 22:35:00,33.5,33.5,29.68,NNW,334,0.0,1.0,100,0.00,,,0.00,WUHU216DAVISWMX,2013-02-28 03:35:00,
2013-02-27 22:40:00,33.5,33.5,29.68,NNW,334,0.0,1.0,100,0.00,,,0.00,WUHU216DAVISWMX,2013-02-28 03:40:00,
2013-02-27 22:45:00,33.5,33.5,29.68,NNW,334,0.0,2.0,100,0.00,,,0.00,WUHU216DAVISWMX,2013-02-28 03:45:00,
2013-02-27 22:50:00,33.5,33.5,29.68,NNW,334,0.0,2.0,100,0.00,,,0.00,WUHU216DAVISWMX,2013-02-28 03:50:00,
2013-02-27 22:55:00,33.5,33.5,29.68,NNW,331,2.0,2.0,100,0.00,,,0.00,WUHU216DAVISWMX,2013-02-28 03:55:00,
2013-02-27 23:00:00,33.5,33.5,29.67,North,357,0.0,2.0,100,0.00,,,0.00,WUHU216DAVISWMX,2013-02-28 04:00:00,
2013-02-27 23:05:00,33.5,33.5,29.67,North,0,0.0,1.0,100,0.00,,,0.00,WUHU216DAVISWMX,2013-02-28 04:05:00,
2013-02-27 23:10:00,33.5,33.5,29.67,North,0,0.0,1.0,100,0.00,,,0.00,WUHU216DAVISWMX,2013-02-28 04:10:00,
2013-02-27 23:15:00,33.6,33.6,29.67,NNW,327,0.0,2.0,100,0.00,,,0.00,WUHU216DAVISWMX,2013-02-28 04:15:00,
2013-02-27 23:20:00,33.5,33.5,29.67,NNW,337,0.0,2.0,100,0.00,,,0.00,WUHU216DAVISWMX,2013-02-28 04:20:00,
2013-02-27 23:25:00,33.5,33.5,29.66,North,6,0.0,2.0,100,0.00,,,0.00,WUHU216DAVISWMX,2013-02-28 04:25:00,
2013-02-27 23:30:00,33.6,33.6,29.66,North,6,0.0,2.0,100,0.00,,,0.00,WUHU216DAVISWMX,2013-02-28 04:30:00,
2013-02-27 23:35:00,33.5,33.5,29.66,NNW,330,1.0,2.0,100,0.00,,,0.00,WUHU216DAVISWMX,2013-02-28 04:35:00,
2013-02-27 23:40:00,33.5,33.5,29.66,NNW,334,0.0,2.0,100,0.00,,,0.00,WUHU216DAVISWMX,2013-02-28 04:40:00,
2013-02-27 23:45:00,33.5,33.5,29.66,NNW,337,1.0,3.0,100,0.00,,,0.00,WUHU216DAVISWMX,2013-02-28 04:45:00,
2013-02-27 23:50:00,33.5,33.5,29.66,NNW,337,0.0,3.0,100,0.00,,,0.00,WUHU216DAVISWMX,2013-02-28 04:50:00,
2013-02-27 23:55:00,33.6,33.6,29.65,NNW,337,0.0,2.0,100,0.00,,,0.00,WUHU216DAVISWMX,2013-02-28 04:55:00,